Location: DARK SKY Beskydy - Park tmavé oblohy, www.darkskybeskydy.cz
(49.4926°N, 18.5016°E)
Time: 02:54:21
(UTC+02:00)

A-11 Canister half - Pass Details

Date: 29 February 2024
Orbit: 1513 x 1686 km, 47.2° (Epoch: 24 April)

Event Time Altitude Azimuth Distance (km) Brightness Sun altitude
Rises 23:54:12 0° 212° (SSW) 4,920 - -48.4°
Reaches altitude 10° 23:57:38 10° 205° (SSW) 3,940 - -48.4°
Maximum altitude 00:06:42 39° 141° (SE) 2,342 - -48.3°
Exits shadow 00:14:19 15° 82° (E) 3,543 10.9 -48.2°
Drops below altitude 10° 00:15:42 10° 78° (ENE) 3,916 11.2 -48.2°
Sets 00:19:05 0° 71° (ENE) 4,887 11.9 -48.2°
